Starlink 33729

operational
NORAD ID: 63647 Int'l Des: 2025-083 Owner: SPXS Country: US Constellation: starlink
LEOCIRCULAR

关于 Starlink 33729

正在加载描述...

实时位置

正在加载3D地球...

即将过境

高度历史

Altitude vs Time

uPlot chart will show altitude changes over time

两行轨道根数

1 63647U 25083P 25308.47854622 .00025535 00000-0 93290-3 0 9996
2 63647 42.9989 352.6685 0001928 281.3418 78.7216 15.27625736 30919
Epoch: Nov 4, 2025 • Age: 7 hours

当前状态

高度 487.6 km
速度 7.62 km/s
星下点 -22.24°S, 127.82°W
发射日期 Apr 25, 2025
运行时间 0.5 years
类型 internet

技术详情

分类 Payload
质量 575.00 kg
干质量 530.00 kg
总质量 575.00 kg
长度 0.30 m
直径 4.10 m
跨度 29.00 m
形状 Box + pan
制造商 SPXS
平台类型 Starlink V2MO
阶段状态 In Orbit
所有者/国家 SPXS/US

大型星座

Loading constellations...